EW4319 Weather Reports


time (UTC)temp
F
wind
direction
speed
knots
gust
knots
rain 1hr
in
rain 24hr
in
rain mn
in
humidity
%
barometer
mb
20260906131705 71 37 1.7 4.3 0.00 0.00 0.00 91 1016.4
20260906131607 71 41 1.7 4.3 0.00 0.00 0.00 91 1016.4
20260906131506 71 38 1.7 4.3 0.00 0.00 0.00 91 1016.4
20260906131405 71 30 1.7 4.3 0.00 0.00 0.00 91 1016.4
20260906131306 71 28 1.7 4.3 0.00 0.00 0.00 91 1016.4
20260906131205 71 25 1.7 4.3 0.00 0.00 0.00 91 1016.4
20260906131106 71 20 1.7 4.3 0.00 0.00 0.00 91 1016.4
20260906131005 71 26 1.7 6.1 0.00 0.00 0.00 91 1016.4
20260906130906 71 30 1.7 6.1 0.00 0.00 0.00 91 1016.4
20260906130806 71 34 1.7 6.1 0.00 0.00 0.00 91 1016.4
20260906130705 71 42 1.7 6.1 0.00 0.00 0.00 91 1016.4
20260906130605 71 37 1.7 6.1 0.00 0.00 0.00 91 1016.4
20260906130505 71 37 1.7 6.1 0.00 0.00 0.00 91 1016.4
20260906130405 71 47 1.7 6.1 0.00 0.00 0.00 90 1016.4
20260906130305 71 49 1.7 7.8 0.00 0.00 0.00 90 1016.3
20260906130106 71 58 1.7 7.8 0.00 0.00 0.00 90 1016.3
20260906130005 71 64 2.6 7.8 0.00 0.00 0.00 90 1016.2
20260906125905 71 63 2.6 7.8 0.00 0.00 0.00 90 1016.2
20260906125805 71 63 2.6 7.8 0.00 0.00 0.00 90 1016.2
20260906125705 71 66 2.6 7.8 0.00 0.00 0.00 90 1016.2
20260906125605 71 65 1.7 7.8 0.00 0.00 0.00 90 1016.2
20260906125506 71 67 1.7 7.8 0.00 0.00 0.00 90 1016.2
20260906125406 71 66 1.7 7.8 0.00 0.00 0.00 90 1016.2
20260906125306 71 69 1.7 7.8 0.00 0.00 0.00 90 1016.3
20260906125206 71 70 0.9 7.8 0.00 0.00 0.00 90 1016.2
20260906125105 71 63 0.9 7.8 0.00 0.00 0.00 90 1016.3
20260906125005 71 56 0.9 7.8 0.00 0.00 0.00 90 1016.3
20260906124906 71 54 0.9 3.5 0.00 0.00 0.00 90 1016.3
20260906124806 71 52 0.9 3.5 0.00 0.00 0.00 90 1016.3
20260906124705 71 48 1.7 3.5 0.00 0.00 0.00 90 1016.3
20260906124605 71 50 1.7 8.7 0.00 0.00 0.00 90 1016.3
20260906124506 71 50 1.7 8.7 0.00 0.00 0.00 90 1016.3
20260906124406 71 51 1.7 8.7 0.00 0.00 0.00 90 1016.3
20260906124305 71 52 1.7 8.7 0.00 0.00 0.00 90 1016.3
20260906124205 71 51 1.7 8.7 0.00 0.00 0.00 90 1016.2
20260906124105 71 49 1.7 8.7 0.00 0.00 0.00 90 1016.1
20260906124005 71 46 1.7 8.7 0.00 0.00 0.00 90 1016.1
20260906123905 71 44 1.7 8.7 0.00 0.00 0.00 90 1016.0
20260906123805 71 42 1.7 8.7 0.00 0.00 0.00 90 1016.0
20260906123706 71 40 0.9 8.7 0.00 0.00 0.00 90 1015.9
20260906123605 71 36 0.9 4.3 0.00 0.00 0.00 90 1015.9
20260906123505 71 33 0.9 4.3 0.00 0.00 0.00 90 1015.9
20260906123405 71 23 0.9 3.5 0.00 0.00 0.00 90 1015.9
20260906123305 71 20 0.9 3.5 0.00 0.00 0.00 90 1015.9
20260906123205 71 25 0.9 3.5 0.00 0.00 0.00 90 1015.9
20260906123105 71 28 0.9 3.5 0.00 0.00 0.00 90 1015.9
20260906123005 71 30 0.9 3.5 0.00 0.00 0.00 90 1015.9
20260906122905 71 32 0.9 2.6 0.00 0.00 0.00 90 1015.9
20260906122805 71 39 0.9 2.6 0.00 0.00 0.00 90 1015.9
20260906122705 71 40 0.9 2.6 0.00 0.00 0.00 90 1015.9
20260906122606 71 40 0.9 2.6 0.00 0.00 0.00 90 1015.9
20260906122405 71 44 0.9 2.6 0.00 0.00 0.00 90 1015.9
20260906122306 71 33 0.9 5.2 0.00 0.00 0.00 90 1015.9
20260906122205 71 26 0.9 5.2 0.00 0.00 0.00 90 1015.9
20260906122106 71 19 0.9 5.2 0.00 0.00 0.00 90 1015.9
20260906122005 71 17 0.9 5.2 0.00 0.00 0.00 90 1015.9
20260906121906 71 13 0.9 5.2 0.00 0.00 0.00 90 1015.9
20260906121805 71 9 0.9 5.2 0.00 0.00 0.00 90 1015.9
20260906121706 71 8 0.9 5.2 0.00 0.00 0.00 90 1015.9
20260906121605 71 10 0.9 5.2 0.00 0.00 0.00 90 1015.9
20260906121405 71 10 0.9 5.2 0.00 0.00 0.00 90 1015.9
20260906121205 71 14 0.9 5.2 0.00 0.00 0.00 90 1015.9
20260906121106 71 16 1.7 5.2 0.00 0.00 0.00 90 1015.9
20260906121005 71 16 0.9 5.2 0.00 0.00 0.00 90 1015.9
20260906120905 71 19 0.9 4.3 0.00 0.00 0.00 90 1016.0
20260906120805 71 19 1.7 4.3 0.00 0.00 0.00 90 1015.9
20260906120705 71 19 1.7 4.3 0.00 0.00 0.00 90 1015.9
20260906120605 71 18 1.7 4.3 0.00 0.00 0.00 90 1015.9
20260906120505 71 16 1.7 4.3 0.00 0.00 0.00 90 1015.9
20260906120405 71 16 1.7 4.3 0.00 0.00 0.00 90 1015.9
20260906120305 71 16 1.7 4.3 0.00 0.00 0.00 90 1015.9
20260906120205 71 15 1.7 4.3 0.00 0.00 0.00 90 1015.8
20260906120104 71 14 1.7 4.3 0.00 0.00 0.00 90 1015.9
20260906120005 71 15 1.7 4.3 0.00 0.00 0.00 90 1015.9
20260906115905 71 13 0.9 4.3 0.00 0.00 0.00 90 1015.9
20260906115805 71 14 0.9 4.3 0.00 0.00 0.00 90 1015.9
20260906115705 71 16 0.9 4.3 0.00 0.00 0.00 90 1015.9
20260906115604 71 15 0.9 3.5 0.00 0.00 0.00 90 1015.8
20260906115504 71 19 0.9 3.5 0.00 0.00 0.00 90 1015.8
20260906115306 72 24 0.9 2.6 0.00 0.00 0.00 90 1015.8
20260906115105 72 25 0.9 1.7 0.00 0.00 0.00 89 1015.7
20260906115005 72 25 0.9 1.7 0.00 0.00 0.00 90 1015.7
20260906114905 72 24 0.9 1.7 0.00 0.00 0.00 90 1015.7
20260906114805 72 22 0.9 1.7 0.00 0.00 0.00 90 1015.7
20260906114705 72 22 0.9 1.7 0.00 0.00 0.00 90 1015.7
20260906114604 71 23 0.9 1.7 0.00 0.00 0.00 90 1015.7
20260906114505 71 22 0.9 1.7 0.00 0.00 0.00 90 1015.7
20260906114405 71 22 0.9 1.7 0.00 0.00 0.00 90 1015.6
20260906114305 71 21 0.9 1.7 0.00 0.00 0.00 89 1015.6
20260906114105 71 21 0.9 1.7 0.00 0.00 0.00 89 1015.4
20260906114005 71 21 0.9 1.7 0.00 0.00 0.00 89 1015.5
20260906113905 72 27 0.9 1.7 0.00 0.00 0.00 90 1015.3
20260906113705 72 28 0.9 1.7 0.00 0.00 0.00 89 1015.4
20260906113604 72 31 0.9 1.7 0.00 0.00 0.00 89 1015.4
20260906113304 72 36 0.0 1.7 0.00 0.00 0.00 89 1015.3
20260906113204 72 39 0.0 1.7 0.00 0.00 0.00 89 1015.3
20260906113106 72 39 0.0 1.7 0.00 0.00 0.00 89 1015.3
20260906113006 72 40 0.0 1.7 0.00 0.00 0.00 89 1015.3
20260906112904 72 39 0.0 1.7 0.00 0.00 0.00 89 1015.3
20260906112805 72 31 0.0 1.7 0.00 0.00 0.00 89 1015.3
20260906112404 72 26 0.0 2.6 0.00 0.00 0.00 89 1015.3
20260906112306 72 26 0.0 2.6 0.00 0.00 0.00 89 1015.3
20260906112205 72 24 0.0 2.6 0.00 0.00 0.00 89 1015.3
20260906112105 72 24 0.0 2.6 0.00 0.00 0.00 89 1015.3
20260906112004 72 24 0.0 2.6 0.00 0.00 0.00 89 1015.3
20260906111904 72 20 0.9 2.6 0.00 0.00 0.00 89 1015.3
20260906111804 72 18 0.9 2.6 0.00 0.00 0.00 89 1015.3
20260906111705 72 18 0.0 2.6 0.00 0.00 0.00 89 1015.3
20260906111606 72 18 0.0 2.6 0.00 0.00 0.00 89 1015.4
20260906111505 72 13 0.0 1.7 0.00 0.00 0.00 89 1015.4
20260906111405 72 12 0.0 1.7 0.00 0.00 0.00 88 1015.4
20260906111204 72 16 0.9 1.7 0.00 0.00 0.00 88 1015.4
20260906111104 72 17 0.9 1.7 0.00 0.00 0.00 88 1015.4
20260906111004 72 16 0.0 1.7 0.00 0.00 0.00 88 1015.3
20260906110905 72 20 0.0 1.7 0.00 0.00 0.00 88 1015.3
20260906110805 72 24 0.0 1.7 0.00 0.00 0.00 88 1015.3
20260906110704 72 21 0.0 1.7 0.00 0.00 0.00 88 1015.3
20260906110604 72 21 0.0 1.7 0.00 0.00 0.00 88 1015.3
20260906110504 72 22 0.0 1.7 0.00 0.00 0.00 88 1015.3
20260906110405 72 22 0.0 1.7 0.00 0.00 0.00 88 1015.3
20260906110306 72 17 0.0 1.7 0.00 0.00 0.00 88 1015.3
20260906110205 72 18 0.0 1.7 0.00 0.00 0.00 88 1015.2
20260906105905 72 26 0.0 1.7 0.00 0.00 0.00 88 1015.2
20260906105805 72 33 0.0 1.7 0.00 0.00 0.00 88 1015.2
20260906105705 72 43 0.0 1.7 0.00 0.00 0.00 88 1015.1
20260906105605 72 45 0.0 1.7 0.00 0.00 0.00 88 1015.1
20260906105504 72 45 0.0 1.7 0.00 0.00 0.00 88 1015.2
20260906105407 72 48 0.0 1.7 0.00 0.00 0.00 88 1015.2
20260906105306 72 57 0.0 1.7 0.00 0.00 0.00 88 1015.2
20260906105105 72 56 0.0 1.7 0.00 0.00 0.00 88 1015.2
20260906105004 73 53 0.0 1.7 0.00 0.00 0.00 87 1015.2
20260906104904 73 49 0.0 1.7 0.00 0.00 0.00 87 1015.2
20260906104704 73 50 0.0 1.7 0.00 0.00 0.00 87 1015.0
20260906104604 73 47 0.0 1.7 0.00 0.00 0.00 87 1015.0
20260906104505 73 51 0.0 1.7 0.00 0.00 0.00 87 1015.1
20260906104404 73 53 0.0 1.7 0.00 0.00 0.00 87 1015.0
20260906104304 73 48 0.0 1.7 0.00 0.00 0.00 87 1015.0
20260906104205 73 49 0.0 1.7 0.00 0.00 0.00 87 1015.1
20260906104105 73 59 0.0 1.7 0.00 0.00 0.00 87 1015.0
20260906103904 73 48 0.0 1.7 0.00 0.00 0.00 87 1015.1
20260906103805 73 37 0.0 1.7 0.00 0.00 0.00 87 1015.1
20260906103704 73 36 0.9 1.7 0.00 0.00 0.00 87 1015.1
20260906103605 73 32 0.9 2.6 0.00 0.00 0.00 87 1015.2
20260906103505 73 26 0.9 2.6 0.00 0.00 0.00 87 1015.2
20260906103304 73 25 0.9 2.6 0.00 0.00 0.00 87 1015.2
20260906103204 73 29 0.9 2.6 0.00 0.00 0.00 87 1015.2
20260906103104 73 28 0.9 2.6 0.00 0.00 0.00 87 1015.2
20260906103005 73 32 0.9 2.6 0.00 0.00 0.00 87 1015.2
20260906102904 73 29 0.9 2.6 0.00 0.00 0.00 87 1015.2
20260906102704 73 29 0.0 2.6 0.00 0.00 0.00 87 1015.2
20260906102604 73 31 0.0 2.6 0.00 0.00 0.00 87 1015.2
20260906102404 73 32 0.0 2.6 0.00 0.00 0.00 86 1015.1
20260906102204 73 24 0.0 1.7 0.00 0.00 0.00 86 1015.1
20260906102105 74 26 0.0 1.7 0.00 0.00 0.00 86 1015.0
20260906101904 73 31 0.0 1.7 0.00 0.00 0.00 86 1015.0
20260906101805 74 32 0.9 1.7 0.00 0.00 0.00 86 1015.1
20260906101704 74 38 0.9 1.7 0.00 0.00 0.00 86 1015.1
20260906101604 74 40 0.9 1.7 0.00 0.00 0.00 86 1015.0
20260906101504 74 41 0.9 1.7 0.00 0.00 0.00 86 1015.0
20260906101404 74 40 0.9 1.7 0.00 0.00 0.00 86 1015.1
20260906101304 74 37 0.9 3.5 0.00 0.00 0.00 86 1015.0
20260906101205 74 41 0.9 3.5 0.00 0.00 0.00 86 1015.0
20260906101104 74 44 0.9 3.5 0.00 0.00 0.00 86 1015.0
20260906101005 74 50 0.9 3.5 0.00 0.00 0.00 86 1015.0
20260906100904 74 52 0.9 3.5 0.00 0.00 0.00 86 1014.9
20260906100804 74 54 0.9 3.5 0.00 0.00 0.00 86 1015.0
20260906100704 74 54 0.9 3.5 0.00 0.00 0.00 86 1014.9
20260906100604 74 53 0.9 3.5 0.00 0.00 0.00 86 1014.9
20260906100504 74 55 0.9 3.5 0.00 0.00 0.00 86 1014.9
20260906100405 74 58 0.9 3.5 0.00 0.00 0.00 86 1014.9
20260906100304 74 61 0.9 3.5 0.00 0.00 0.00 86 1014.9
20260906100205 74 63 0.9 2.6 0.00 0.00 0.00 86 1014.7
20260906100104 74 56 0.9 2.6 0.00 0.00 0.00 86 1014.8
20260906100004 74 56 0.9 2.6 0.00 0.00 0.00 86 1014.8
20260906095904 74 59 0.9 2.6 0.00 0.00 0.00 86 1014.8
20260906095805 74 58 0.9 2.6 0.00 0.00 0.00 86 1014.8
20260906095604 74 63 0.9 2.6 0.00 0.00 0.00 85 1014.8
20260906095504 74 64 0.9 2.6 0.00 0.00 0.00 85 1014.8
20260906095404 74 60 0.9 2.6 0.00 0.00 0.00 85 1014.8
20260906095204 74 62 0.9 4.3 0.00 0.00 0.00 85 1014.8
20260906095104 74 64 0.9 4.3 0.00 0.00 0.00 85 1014.8
20260906094904 74 59 0.9 4.3 0.00 0.00 0.00 85 1014.8
20260906094804 74 57 0.9 4.3 0.00 0.00 0.00 85 1014.8
20260906094704 74 49 0.9 4.3 0.00 0.00 0.00 85 1014.8
20260906094404 74 53 0.9 4.3 0.00 0.00 0.00 85 1014.8
20260906094305 74 50 0.9 3.5 0.00 0.00 0.00 85 1014.8
20260906094204 74 48 0.9 3.5 0.00 0.00 0.00 85 1014.7
20260906094104 74 47 0.9 3.5 0.00 0.00 0.00 85 1014.8
20260906094004 74 48 0.9 3.5 0.00 0.00 0.00 85 1014.8
20260906093904 75 51 0.9 3.5 0.00 0.00 0.00 85 1014.8
20260906093804 75 53 0.9 3.5 0.00 0.00 0.00 85 1014.8
20260906093604 75 49 0.9 2.6 0.00 0.00 0.00 85 1014.8
20260906093504 75 49 0.9 2.6 0.00 0.00 0.00 85 1014.7
20260906093303 75 54 1.7 3.5 0.00 0.00 0.00 85 1014.7
20260906093203 75 54 1.7 3.5 0.00 0.00 0.00 85 1014.7
20260906093104 75 55 1.7 5.2 0.00 0.00 0.00 85 1014.6
20260906092704 75 49 1.7 5.2 0.00 0.00 0.00 85 1014.5
20260906092603 75 47 1.7 5.2 0.00 0.00 0.00 85 1014.5
20260906092503 75 46 1.7 5.2 0.00 0.00 0.00 85 1014.5
20260906092404 75 46 1.7 5.2 0.00 0.00 0.00 85 1014.5
20260906092204 75 43 0.9 5.2 0.00 0.00 0.00 85 1014.6
20260906092104 75 38 0.9 3.5 0.00 0.00 0.00 85 1014.6
20260906092004 75 37 0.9 3.5 0.00 0.00 0.00 85 1014.6
20260906091903 75 41 0.9 3.5 0.00 0.00 0.00 85 1014.6
20260906091804 75 36 0.9 2.6 0.00 0.00 0.00 85 1014.6
20260906091704 75 34 0.9 2.6 0.00 0.00 0.00 85 1014.6
20260906091604 75 30 0.9 2.6 0.00 0.00 0.00 85 1014.7
20260906091504 75 27 0.9 2.6 0.00 0.00 0.00 85 1014.7
20260906091404 75 22 0.9 1.7 0.00 0.00 0.00 85 1014.7
20260906091303 75 18 0.9 1.7 0.00 0.00 0.00 85 1014.7
20260906091203 75 18 0.9 1.7 0.00 0.00 0.00 85 1014.8
20260906091104 75 21 0.9 1.7 0.00 0.00 0.00 85 1014.8
20260906091004 75 17 0.9 1.7 0.00 0.00 0.00 85 1014.8
20260906090904 75 28 0.9 3.5 0.00 0.00 0.00 85 1014.7
20260906090703 76 35 0.9 3.5 0.00 0.00 0.00 85 1014.8
20260906090603 76 41 0.9 3.5 0.00 0.00 0.00 85 1014.7
20260906090503 76 33 0.9 3.5 0.00 0.00 0.00 85 1014.7
20260906090303 76 32 0.9 3.5 0.00 0.00 0.00 85 1014.6
20260906090204 76 33 0.9 3.5 0.00 0.00 0.00 85 1014.6
20260906090104 76 34 0.9 3.5 0.00 0.00 0.00 85 1014.6
20260906090004 76 39 0.9 3.5 0.00 0.00 0.00 85 1014.5
20260906085804 76 33 0.9 2.6 0.00 0.00 0.00 85 1014.5
20260906085703 76 27 0.9 2.6 0.00 0.00 0.00 85 1014.4
20260906085604 76 29 0.9 2.6 0.00 0.00 0.00 85 1014.4
20260906085505 76 41 0.9 2.6 0.00 0.00 0.00 84 1014.4
20260906085404 76 46 0.9 2.6 0.00 0.00 0.00 84 1014.4
20260906085306 76 50 0.9 2.6 0.00 0.00 0.00 84 1014.4
20260906085204 76 54 0.9 3.5 0.00 0.00 0.00 84 1014.4
20260906085103 76 53 0.9 3.5 0.00 0.00 0.00 84 1014.4
20260906085003 76 45 0.9 3.5 0.00 0.00 0.00 84 1014.4
20260906084904 76 46 0.9 3.5 0.00 0.00 0.00 84 1014.4
20260906084703 76 50 0.9 3.5 0.00 0.00 0.00 84 1014.4
20260906084504 76 52 0.9 3.5 0.00 0.00 0.00 83 1014.4
20260906084104 77 50 0.9 3.5 0.00 0.00 0.00 83 1014.4
20260906084004 77 56 0.9 3.5 0.00 0.00 0.00 83 1014.4
20260906083803 77 61 1.7 3.5 0.00 0.00 0.00 82 1014.3
20260906083703 77 59 1.7 3.5 0.00 0.00 0.00 82 1014.3
20260906083603 77 56 1.7 3.5 0.00 0.00 0.00 82 1014.3
20260906083503 77 55 1.7 3.5 0.00 0.00 0.00 82 1014.3
20260906083403 77 54 1.7 3.5 0.00 0.00 0.00 82 1014.3
20260906083304 77 50 0.9 3.5 0.00 0.00 0.00 82 1014.3
20260906083104 77 46 1.7 3.5 0.00 0.00 0.00 82 1014.3
20260906082903 77 38 0.9 3.5 0.00 0.00 0.00 82 1014.3
20260906082803 77 37 0.9 3.5 0.00 0.00 0.00 82 1014.3
20260906082603 77 37 0.9 3.5 0.00 0.00 0.00 82 1014.3
20260906082504 77 36 0.9 3.5 0.00 0.00 0.00 81 1014.3
20260906082404 77 38 0.9 3.5 0.00 0.00 0.00 81 1014.3
20260906082306 77 43 0.9 3.5 0.00 0.00 0.00 81 1014.4
20260906082103 77 55 0.9 3.5 0.00 0.00 0.00 81 1014.4
20260906082003 77 59 0.9 3.5 0.00 0.00 0.00 81 1014.4
20260906081803 77 57 1.7 4.3 0.00 0.00 0.00 81 1014.3
20260906081705 77 58 1.7 4.3 0.00 0.00 0.00 81 1014.3
20260906081603 78 59 1.7 4.3 0.00 0.00 0.00 81 1014.3
20260906081503 78 60 1.7 4.3 0.00 0.00 0.00 80 1014.3
20260906081203 78 58 1.7 4.3 0.00 0.00 0.00 80 1014.3
20260906081004 78 59 1.7 4.3 0.00 0.00 0.00 80 1014.4
20260906080804 78 61 1.7 4.3 0.00 0.00 0.00 80 1014.4
20260906080703 78 59 1.7 4.3 0.00 0.00 0.00 80 1014.4
20260906080603 78 58 1.7 4.3 0.00 0.00 0.00 80 1014.4
20260906080403 78 58 1.7 4.3 0.00 0.00 0.00 80 1014.4
20260906080303 78 58 1.7 4.3 0.00 0.00 0.00 80 1014.3
20260906080103 78 57 1.7 4.3 0.00 0.00 0.00 80 1014.3
20260906075803 78 55 1.7 4.3 0.00 0.00 0.00 80 1014.3
20260906075703 78 56 1.7 4.3 0.00 0.00 0.00 80 1014.3
20260906075604 78 56 1.7 4.3 0.00 0.00 0.00 80 1014.3
20260906075503 78 56 1.7 4.3 0.00 0.00 0.00 80 1014.3
20260906075403 78 56 1.7 4.3 0.00 0.00 0.00 80 1014.3
20260906075306 78 58 1.7 4.3 0.00 0.00 0.00 80 1014.3
20260906075203 78 62 1.7 3.5 0.00 0.00 0.00 80 1014.3
20260906075103 78 60 1.7 3.5 0.00 0.00 0.00 80 1014.3
20260906075003 78 58 1.7 4.3 0.00 0.00 0.00 80 1014.3
20260906074903 78 57 1.7 6.1 0.00 0.00 0.00 80 1014.3
20260906074803 78 57 1.7 6.1 0.00 0.00 0.00 80 1014.3
20260906074703 78 57 1.7 6.1 0.00 0.00 0.00 80 1014.3
20260906074604 78 59 1.7 6.1 0.00 0.00 0.00 80 1014.3
20260906074503 78 59 1.7 6.1 0.00 0.00 0.00 80 1014.3
20260906074403 78 55 1.7 6.1 0.00 0.00 0.00 81 1014.3
20260906074304 78 52 1.7 6.1 0.00 0.00 0.00 81 1014.3
20260906074203 78 51 1.7 6.1 0.00 0.00 0.00 81 1014.3
20260906074103 78 51 1.7 6.1 0.00 0.00 0.00 81 1014.3
20260906074003 78 56 1.7 6.1 0.00 0.00 0.00 81 1014.3
20260906073803 78 58 0.9 4.3 0.00 0.00 0.00 82 1014.3
20260906073703 78 59 0.9 4.3 0.00 0.00 0.00 82 1014.3
20260906073603 78 55 0.9 4.3 0.00 0.00 0.00 82 1014.3
20260906073504 78 54 0.9 4.3 0.00 0.00 0.00 82 1014.3
20260906073403 79 61 0.9 2.6 0.00 0.00 0.00 82 1014.3
20260906073303 79 65 0.9 4.3 0.00 0.00 0.00 82 1014.3
20260906073102 79 62 0.9 4.3 0.00 0.00 0.00 82 1014.3
20260906073003 79 60 0.9 4.3 0.00 0.00 0.00 82 1014.3
20260906072904 79 56 0.9 4.3 0.00 0.00 0.00 82 1014.3
20260906072704 79 55 0.9 4.3 0.00 0.00 0.00 82 1014.3
20260906072603 79 55 0.9 4.3 0.00 0.00 0.00 82 1014.3
20260906072503 79 57 0.9 4.3 0.00 0.00 0.00 82 1014.3
20260906072404 79 56 0.9 4.3 0.00 0.00 0.00 82 1014.3
20260906072306 79 54 0.9 3.5 0.00 0.00 0.00 82 1014.3
20260906072203 79 61 0.9 3.5 0.00 0.00 0.00 82 1014.3
20260906072103 79 61 0.9 3.5 0.00 0.00 0.00 82 1014.3
20260906072003 79 59 0.9 3.5 0.00 0.00 0.00 82 1014.3
20260906071903 79 63 0.9 3.5 0.00 0.00 0.00 82 1014.3
20260906071803 79 63 0.9 3.5 0.00 0.00 0.00 82 1014.2
20260906071603 79 62 0.9 3.5 0.00 0.00 0.00 83 1014.2
20260906071503 79 62 0.9 3.5 0.00 0.00 0.00 83 1014.2
20260906071304 79 69 0.9 3.5 0.00 0.00 0.00 83 1014.2
20260906071204 79 63 0.9 3.5 0.00 0.00 0.00 84 1014.2
20260906071103 79 60 0.9 3.5 0.00 0.00 0.00 84 1014.2
20260906070905 79 64 0.9 3.5 0.00 0.00 0.00 84 1014.2
20260906070703 79 63 0.9 1.7 0.00 0.00 0.00 84 1014.2
20260906070603 79 60 0.9 1.7 0.00 0.00 0.00 85 1014.2
20260906070504 79 60 0.9 1.7 0.00 0.00 0.00 84 1014.2
20260906070403 79 59 0.9 1.7 0.00 0.00 0.00 84 1014.2
20260906070302 79 57 0.9 1.7 0.00 0.00 0.00 84 1014.2
20260906070203 79 54 0.9 1.7 0.00 0.00 0.00 84 1014.3
20260906070003 79 55 0.9 2.6 0.00 0.00 0.00 84 1014.3
20260906065904 79 55 0.9 2.6 0.00 0.00 0.00 84 1014.3
20260906065704 79 57 0.9 2.6 0.00 0.00 0.00 84 1014.3
20260906065603 80 59 0.9 2.6 0.00 0.00 0.00 84 1014.3
20260906065503 80 68 0.9 2.6 0.00 0.00 0.00 84 1014.2
20260906065403 80 73 0.9 2.6 0.00 0.00 0.00 84 1014.2
20260906065305 80 77 0.9 2.6 0.00 0.00 0.00 83 1014.2
20260906065202 80 80 0.9 2.6 0.00 0.00 0.00 83 1014.2
20260906065103 80 78 0.9 2.6 0.00 0.00 0.00 83 1014.2
20260906065004 80 80 0.9 1.7 0.00 0.00 0.00 83 1014.2
20260906064903 80 75 0.9 1.7 0.00 0.00 0.00 83 1014.2
20260906064803 80 87 0.9 1.7 0.00 0.00 0.00 83 1014.2
20260906064702 80 97 0.9 1.7 0.00 0.00 0.00 83 1014.2
20260906064602 80 99 0.9 1.7 0.00 0.00 0.00 83 1014.2
20260906064504 80 99 0.9 1.7 0.00 0.00 0.00 83 1014.2
20260906064303 80 102 0.9 1.7 0.00 0.00 0.00 83 1014.3
20260906064203 80 103 0.9 1.7 0.00 0.00 0.00 83 1014.3
20260906064102 80 108 0.9 1.7 0.00 0.00 0.00 83 1014.3
20260906064002 80 108 0.9 1.7 0.00 0.00 0.00 82 1014.3
20260906063903 80 109 0.9 1.7 0.00 0.00 0.00 82 1014.2
20260906063703 80 96 0.9 1.7 0.00 0.00 0.00 82 1014.2
20260906063502 80 101 0.9 1.7 0.00 0.00 0.00 82 1014.2
20260906063402 80 102 0.9 1.7 0.00 0.00 0.00 82 1014.2
20260906063203 80 92 0.9 3.5 0.00 0.00 0.00 82 1014.3
20260906063103 80 90 0.9 3.5 0.00 0.00 0.00 82 1014.3
20260906062902 80 95 0.9 3.5 0.00 0.00 0.00 82 1014.3
20260906062802 80 99 0.9 3.5 0.00 0.00 0.00 82 1014.3
20260906062702 80 108 0.9 3.5 0.00 0.00 0.00 82 1014.3
20260906062602 80 96 0.9 3.5 0.00 0.00 0.00 82 1014.3
20260906062404 81 91 0.9 3.5 0.00 0.00 0.00 82 1014.3
20260906062306 81 95 0.9 3.5 0.00 0.00 0.00 82 1014.3
20260906062202 81 94 0.9 3.5 0.00 0.00 0.00 81 1014.3
20260906062102 81 92 0.9 3.5 0.00 0.00 0.00 81 1014.3
20260906062003 81 99 0.9 3.5 0.00 0.00 0.00 81 1014.3
20260906061903 81 101 0.9 3.5 0.00 0.00 0.00 81 1014.3
20260906061803 81 97 0.9 3.5 0.00 0.00 0.00 81 1014.3
20260906061703 81 94 0.9 3.5 0.00 0.00 0.00 81 1014.3
20260906061603 81 93 0.9 3.5 0.00 0.00 0.00 81 1014.3
20260906061503 81 92 0.9 3.5 0.00 0.00 0.00 81 1014.3
20260906061402 81 93 0.9 3.5 0.00 0.00 0.00 81 1014.3
20260906061203 81 91 0.9 3.5 0.00 0.00 0.00 81 1014.3
20260906061102 81 88 0.9 4.3 0.00 0.00 0.00 81 1014.3
20260906061003 81 80 0.9 4.3 0.00 0.00 0.00 81 1014.3
20260906060903 81 78 0.9 4.3 0.00 0.00 0.00 80 1014.3
20260906060802 81 76 0.9 4.3 0.00 0.00 0.00 80 1014.3
20260906060702 81 73 0.9 4.3 0.00 0.00 0.00 80 1014.3
20260906060603 81 76 0.9 4.3 0.00 0.00 0.00 80 1014.3
20260906060503 81 80 0.9 4.3 0.00 0.00 0.00 80 1014.3
20260906060403 81 79 0.9 4.3 0.00 0.00 0.00 80 1014.4
20260906060302 81 80 0.9 4.3 0.00 0.00 0.00 80 1014.4
20260906060202 81 79 0.9 4.3 0.00 0.00 0.00 80 1014.5
20260906060103 82 88 0.9 3.5 0.00 0.00 0.00 80 1014.4
20260906060003 82 90 0.9 3.5 0.00 0.00 0.00 80 1014.5
20260906055903 82 89 0.9 3.5 0.00 0.00 0.00 80 1014.5
20260906055702 82 85 1.7 3.5 0.00 0.00 0.00 79 1014.5
20260906055603 82 86 1.7 3.5 0.00 0.00 0.00 79 1014.5
20260906055503 82 82 1.7 3.5 0.00 0.00 0.00 79 1014.5
20260906055403 82 77 1.7 4.3 0.00 0.00 0.00 79 1014.5
20260906055306 82 76 1.7 4.3 0.00 0.00 0.00 79 1014.5
20260906055204 82 76 1.7 4.3 0.00 0.00 0.00 79 1014.5
20260906055102 82 75 1.7 4.3 0.00 0.00 0.00 79 1014.5
20260906055003 82 77 1.7 4.3 0.00 0.00 0.00 79 1014.4
20260906054703 82 77 1.7 4.3 0.00 0.00 0.00 78 1014.4
20260906054602 82 76 1.7 4.3 0.00 0.00 0.00 78 1014.5
20260906054503 82 73 1.7 7.8 0.00 0.00 0.00 78 1014.4
20260906054403 82 75 1.7 7.8 0.00 0.00 0.00 78 1014.4
20260906054303 82 79 1.7 7.8 0.00 0.00 0.00 78 1014.4
20260906054203 82 78 1.7 7.8 0.00 0.00 0.00 78 1014.4
20260906054102 82 75 2.6 7.8 0.00 0.00 0.00 78 1014.3
20260906054002 82 79 2.6 7.8 0.00 0.00 0.00 78 1014.3
20260906053803 82 79 1.7 7.8 0.00 0.00 0.00 78 1014.3
20260906053602 82 76 1.7 7.8 0.00 0.00 0.00 78 1014.3
20260906053502 83 80 1.7 7.8 0.00 0.00 0.00 78 1014.2
20260906053402 83 80 1.7 7.8 0.00 0.00 0.00 78 1014.2
20260906053304 83 79 1.7 7.8 0.00 0.00 0.00 77 1014.2
20260906053203 83 78 1.7 5.2 0.00 0.00 0.00 77 1014.2
20260906053102 83 81 1.7 5.2 0.00 0.00 0.00 77 1014.2
20260906053002 83 79 1.7 5.2 0.00 0.00 0.00 77 1014.2
20260906052902 83 82 1.7 5.2 0.00 0.00 0.00 77 1014.2
20260906052703 83 83 1.7 5.2 0.00 0.00 0.00 77 1014.3
20260906052602 83 86 1.7 5.2 0.00 0.00 0.00 77 1014.3
20260906052403 83 81 1.7 5.2 0.00 0.00 0.00 77 1014.3
20260906052202 83 85 1.7 5.2 0.00 0.00 0.00 77 1014.3
20260906052102 83 86 1.7 3.5 0.00 0.00 0.00 76 1014.3
20260906052002 83 80 1.7 4.3 0.00 0.00 0.00 76 1014.3
20260906051902 83 78 1.7 4.3 0.00 0.00 0.00 76 1014.2
20260906051802 83 79 1.7 4.3 0.00 0.00 0.00 76 1014.2
20260906051703 83 81 1.7 4.3 0.00 0.00 0.00 76 1014.2
20260906051602 83 79 1.7 4.3 0.00 0.00 0.00 76 1014.3
20260906051503 83 80 1.7 5.2 0.00 0.00 0.00 76 1014.2
20260906051302 83 77 1.7 5.2 0.00 0.00 0.00 76 1014.3
20260906051103 83 72 1.7 5.2 0.00 0.00 0.00 76 1014.2
20260906051003 83 74 1.7 5.2 0.00 0.00 0.00 76 1014.2
20260906050903 83 79 1.7 5.2 0.00 0.00 0.00 76 1014.2
20260906050804 83 82 1.7 5.2 0.00 0.00 0.00 76 1014.2
20260906050702 83 80 1.7 5.2 0.00 0.00 0.00 76 1014.2
20260906050603 83 82 0.9 5.2 0.00 0.00 0.00 75 1014.2
20260906050502 83 83 0.9 5.2 0.00 0.00 0.00 75 1014.2
20260906050403 83 92 0.9 4.3 0.00 0.00 0.00 75 1014.1
20260906050302 84 96 0.9 2.6 0.00 0.00 0.00 75 1014.2
20260906050202 83 100 0.9 2.6 0.00 0.00 0.00 75 1014.1
20260906050103 84 106 0.9 2.6 0.00 0.00 0.00 75 1014.1
20260906045902 84 92 0.9 2.6 0.00 0.00 0.00 75 1014.0
20260906045704 84 80 0.9 3.5 0.00 0.00 0.00 75 1014.0
20260906045402 84 69 1.7 3.5 0.00 0.00 0.00 75 1014.0
20260906045305 84 64 1.7 3.5 0.00 0.00 0.00 75 1014.0
20260906045203 84 68 1.7 4.3 0.00 0.00 0.00 75 1014.0
20260906045102 84 71 1.7 4.3 0.00 0.00 0.00 74 1014.0
20260906045002 84 76 1.7 4.3 0.00 0.00 0.00 74 1014.0
20260906044902 84 76 1.7 4.3 0.00 0.00 0.00 74 1014.0
20260906044802 84 79 0.9 4.3 0.00 0.00 0.00 74 1014.0
20260906044701 84 80 0.9 4.3 0.00 0.00 0.00 74 1013.9
20260906044602 84 79 0.9 4.3 0.00 0.00 0.00 74 1013.9
20260906044502 84 80 0.9 4.3 0.00 0.00 0.00 74 1013.9
20260906044302 84 82 1.7 4.3 0.00 0.00 0.00 74 1013.8
20260906044203 84 82 0.9 4.3 0.00 0.00 0.00 74 1013.8
20260906044102 84 76 1.7 4.3 0.00 0.00 0.00 74 1013.8
20260906044002 84 72 1.7 4.3 0.00 0.00 0.00 74 1013.8
20260906043902 84 72 1.7 4.3 0.00 0.00 0.00 74 1013.8
20260906043802 84 72 1.7 4.3 0.00 0.00 0.00 74 1013.8
20260906043701 84 69 1.7 4.3 0.00 0.00 0.00 73 1013.8
20260906043602 84 67 1.7 3.5 0.00 0.00 0.00 73 1013.8
20260906043502 84 68 1.7 3.5 0.00 0.00 0.00 73 1013.8
20260906043402 84 67 0.9 3.5 0.00 0.00 0.00 73 1013.8
20260906043302 84 66 0.9 3.5 0.00 0.00 0.00 73 1013.8
20260906043201 84 62 0.9 3.5 0.00 0.00 0.00 73 1013.8
20260906043002 84 60 0.9 3.5 0.00 0.00 0.00 73 1013.8
20260906042802 84 56 0.9 3.5 0.00 0.00 0.00 73 1013.7
20260906042702 84 56 0.9 3.5 0.00 0.00 0.00 73 1013.8
20260906042601 84 56 0.9 4.3 0.00 0.00 0.00 73 1013.8
20260906042502 84 56 1.7 6.1 0.00 0.00 0.00 73 1013.8
20260906042402 84 56 1.7 6.1 0.00 0.00 0.00 73 1013.8
20260906042306 84 58 1.7 7.8 0.00 0.00 0.00 73 1013.8
20260906042202 85 57 1.7 7.8 0.00 0.00 0.00 72 1013.8
20260906042101 85 57 1.7 7.8 0.00 0.00 0.00 72 1013.8
20260906041901 85 55 1.7 7.8 0.00 0.00 0.00 72 1013.7
20260906041802 85 55 1.7 7.8 0.00 0.00 0.00 72 1013.8
20260906041602 85 58 1.7 7.8 0.00 0.00 0.00 72 1013.7
20260906041502 85 58 1.7 7.8 0.00 0.00 0.00 72 1013.7
20260906041402 85 60 1.7 7.8 0.00 0.00 0.00 72 1013.7
20260906041202 85 61 1.7 4.3 0.00 0.00 0.00 72 1013.7
20260906041101 85 61 1.7 4.3 0.00 0.00 0.00 72 1013.7
20260906041003 85 61 1.7 4.3 0.00 0.00 0.00 72 1013.7
20260906040902 85 64 0.9 4.3 0.00 0.00 0.00 72 1013.7
20260906040802 85 65 0.9 4.3 0.00 0.00 0.00 72 1013.7
20260906040602 85 61 0.9 4.3 0.00 0.00 0.00 72 1013.7
20260906040501 85 62 0.9 3.5 0.00 0.00 0.00 72 1013.6
20260906040301 85 63 0.9 3.5 0.00 0.00 0.00 71 1013.7
20260906024701 87 74 0.9 4.3 0.00 0.00 0.00 65 1012.8
20260906024601 87 79 0.9 2.6 0.00 0.00 0.00 65 1012.8
20260906024402 87 81 0.9 2.6 0.00 0.00 0.00 64 1012.8
20260906024303 87 84 0.9 2.6 0.00 0.00 0.00 64 1012.8
20260906024201 87 88 0.9 2.6 0.00 0.00 0.00 64 1012.8
20260906024101 87 89 0.9 2.6 0.00 0.00 0.00 64 1012.8
20260906024001 87 88 0.9 2.6 0.00 0.00 0.00 64 1012.9
20260906023902 87 86 0.9 2.6 0.00 0.00 0.00 64 1012.9
20260906022901 87 91 0.9 1.7 0.00 0.00 0.00 63 1012.8
20260906022802 87 91 0.9 1.7 0.00 0.00 0.00 63 1012.8
20260906022601 87 93 0.9 1.7 0.00 0.00 0.00 62 1012.7
20260906022501 87 91 0.9 1.7 0.00 0.00 0.00 62 1012.7
20260906022401 87 95 0.9 1.7 0.00 0.00 0.00 62 1012.7
20260906022201 87 99 0.9 1.7 0.00 0.00 0.00 62 1012.7
20260906022101 87 98 0.9 1.7 0.00 0.00 0.00 62 1012.7
20260906022001 87 97 0.9 1.7 0.00 0.00 0.00 62 1012.7
20260906021801 87 99 0.9 1.7 0.00 0.00 0.00 62 1012.7
20260906021702 87 101 0.9 1.7 0.00 0.00 0.00 62 1012.7
20260906021601 87 104 0.9 1.7 0.00 0.00 0.00 62 1012.7
20260906021501 87 108 0.9 0.9 0.00 0.00 0.00 62 1012.7
20260906021401 87 109 0.0 0.9 0.00 0.00 0.00 61 1012.7
20260906021301 87 104 0.0 1.7 0.00 0.00 0.00 61 1012.7
20260906021101 87 104 0.0 1.7 0.00 0.00 0.00 61 1012.6
20260906021001 87 102 0.0 1.7 0.00 0.00 0.00 61 1012.6
20260906020902 87 101 0.0 1.7 0.00 0.00 0.00 61 1012.6
20260906020800 87 99 0.0 1.7 0.00 0.00 0.00 61 1012.6
20260906020700 87 98 0.0 1.7 0.00 0.00 0.00 61 1012.6
20260906020601 87 104 0.0 1.7 0.00 0.00 0.00 61 1012.6
20260906020501 87 107 0.0 1.7 0.00 0.00 0.00 61 1012.6
20260906020402 87 107 0.0 1.7 0.00 0.00 0.00 61 1012.5
20260906020302 87 110 0.9 1.7 0.00 0.00 0.00 61 1012.5
20260906020200 87 111 0.9 1.7 0.00 0.00 0.00 61 1012.6
20260906020100 87 111 0.9 1.7 0.00 0.00 0.00 61 1012.5
20260906020001 87 111 0.9 1.7 0.00 0.00 0.00 61 1012.5
20260906015902 87 113 0.0 1.7 0.00 0.00 0.00 61 1012.5
20260906015702 87 112 0.0 1.7 0.00 0.00 0.00 61 1012.4
20260906015601 87 110 0.0 1.7 0.00 0.00 0.00 61 1012.4
20260906015501 87 103 0.0 1.7 0.00 0.00 0.00 60 1012.3
20260906015401 87 102 0.0 1.7 0.00 0.00 0.00 60 1012.2
20260906015300 87 104 0.0 1.7 0.00 0.00 0.00 60 1012.3
20260906015102 87 113 0.0 1.7 0.00 0.00 0.00 60 1012.2
20260906015001 87 119 0.0 1.7 0.00 0.00 0.00 60 1012.2
20260906014901 87 123 0.0 1.7 0.00 0.00 0.00 60 1012.2
20260906014801 87 125 0.0 1.7 0.00 0.00 0.00 60 1012.2
20260906014702 87 125 0.0 1.7 0.00 0.00 0.00 60 1012.2
20260906014600 87 125 0.0 1.7 0.00 0.00 0.00 60 1012.2
20260906014500 88 125 0.0 1.7 0.00 0.00 0.00 59 1012.2
20260906014401 88 125 0.0 1.7 0.00 0.00 0.00 59 1012.2
20260906014301 88 125 0.0 1.7 0.00 0.00 0.00 59 1012.2
20260906014201 88 127 0.0 1.7 0.00 0.00 0.00 59 1012.2
20260906014101 88 130 0.0 1.7 0.00 0.00 0.00 59 1012.2
20260906014000 88 130 0.0 1.7 0.00 0.00 0.00 58 1012.2
20260906013900 88 130 0.0 1.7 0.00 0.00 0.00 58 1012.2
20260906013801 88 132 0.0 1.7 0.00 0.00 0.00 58 1012.1
20260906013701 88 132 0.0 1.7 0.00 0.00 0.00 58 1012.2
20260906013501 88 129 0.0 1.7 0.00 0.00 0.00 58 1012.2
20260906013400 88 129 0.0 1.7 0.00 0.00 0.00 58 1012.2
20260906013200 88 126 0.0 1.7 0.00 0.00 0.00 58 1012.1
20260906013102 88 118 0.0 1.7 0.00 0.00 0.00 58 1012.1
20260906013001 88 116 0.0 1.7 0.00 0.00 0.00 58 1012.1
20260906012901 88 111 0.0 1.7 0.00 0.00 0.00 58 1012.1
20260906012700 88 107 0.0 1.7 0.00 0.00 0.00 57 1012.1
20260906012501 88 93 0.0 1.7 0.00 0.00 0.00 57 1012.1
20260906012401 88 93 0.0 1.7 0.00 0.00 0.00 57 1012.1
20260906012301 88 93 0.0 1.7 0.00 0.00 0.00 57 1012.0
20260906012202 88 90 0.0 1.7 0.00 0.00 0.00 57 1012.1
20260906012101 88 93 0.0 1.7 0.00 0.00 0.00 58 1012.0
20260906011901 88 95 0.0 1.7 0.00 0.00 0.00 58 1012.0
20260906011803 88 95 0.0 1.7 0.00 0.00 0.00 58 1012.0
20260906011700 88 97 0.0 1.7 0.00 0.00 0.00 58 1012.0
20260906011600 88 102 0.0 1.7 0.00 0.00 0.00 58 1012.0
20260906011501 88 120 0.0 1.7 0.00 0.00 0.00 57 1012.0
20260906011401 88 121 0.0 1.7 0.00 0.00 0.00 57 1012.0
20260906011300 88 123 0.0 1.7 0.00 0.00 0.00 57 1012.0
20260906011200 88 123 0.0 1.7 0.00 0.00 0.00 57 1011.9
20260906011101 88 123 0.0 1.7 0.00 0.00 0.00 57 1011.9
20260906011001 88 124 0.0 1.7 0.00 0.00 0.00 57 1011.8
20260906010901 88 128 0.0 1.7 0.00 0.00 0.00 57 1011.8
20260906010801 88 128 0.0 1.7 0.00 0.00 0.00 57 1011.8
20260906010700 88 127 0.0 1.7 0.00 0.00 0.00 58 1011.8
20260906010500 88 126 0.0 1.7 0.00 0.00 0.00 59 1011.7
20260906010401 88 126 0.0 1.7 0.00 0.00 0.00 58 1011.7
20260906010300 88 124 0.0 1.7 0.00 0.00 0.00 58 1011.7
20260906010200 88 119 0.0 1.7 0.00 0.00 0.00 58 1011.7
20260906010100 88 118 0.0 1.7 0.00 0.00 0.00 58 1011.7
20260906010000 88 114 0.0 1.7 0.00 0.00 0.00 58 1011.6
20260906005901 88 114 0.0 1.7 0.00 0.00 0.00 58 1011.7
20260906005800 88 114 0.0 1.7 0.00 0.00 0.00 58 1011.7
20260906005700 88 111 0.0 1.7 0.00 0.00 0.00 58 1011.7
20260906005600 88 110 0.0 1.7 0.00 0.00 0.00 58 1011.7
20260906005500 88 109 0.0 1.7 0.00 0.00 0.00 58 1011.7
20260906005301 88 106 0.0 1.7 0.00 0.00 0.00 57 1011.7
20260906005200 88 107 0.0 1.7 0.00 0.00 0.00 58 1011.7
20260906005100 89 107 0.0 1.7 0.00 0.00 0.00 58 1011.7
20260906004900 89 108 0.0 1.7 0.00 0.00 0.00 57 1011.7
20260906004600 89 107 0.0 1.7 0.00 0.00 0.00 57 1011.7
20260906004400 89 104 0.0 1.7 0.00 0.00 0.00 57 1011.7
20260906004300 89 90 0.0 1.7 0.00 0.00 0.00 57 1011.7
20260906004201 89 83 0.0 2.6 0.00 0.00 0.00 57 1011.6
20260906004101 89 86 0.0 2.6 0.00 0.00 0.00 56 1011.6
20260906004000 89 87 0.0 2.6 0.00 0.00 0.00 56 1011.6
20260906003900 89 84 0.0 2.6 0.00 0.00 0.00 56 1011.6
20260906003801 89 78 0.0 2.6 0.00 0.00 0.00 56 1011.6
20260906003700 89 79 0.0 2.6 0.00 0.00 0.00 56 1011.7
20260906003601 89 78 0.0 2.6 0.00 0.00 0.00 56 1011.6
20260906003500 89 83 0.0 2.6 0.00 0.00 0.00 56 1011.6
20260906003400 89 84 0.0 2.6 0.00 0.00 0.00 56 1011.6
20260906003300 89 95 0.0 2.6 0.00 0.00 0.00 56 1011.6
20260906003200 89 110 0.0 1.7 0.00 0.00 0.00 56 1011.6
20260906003100 89 107 0.0 1.7 0.00 0.00 0.00 57 1011.6
20260906003001 89 106 0.0 1.7 0.00 0.00 0.00 57 1011.6
20260906002900 89 106 0.0 1.7 0.00 0.00 0.00 56 1011.6
20260906002800 89 109 0.0 1.7 0.00 0.00 0.00 56 1011.6
20260906002700 89 108 0.0 1.7 0.00 0.00 0.00 56 1011.6
20260906002600 89 108 0.0 1.7 0.00 0.00 0.00 56 1011.6
20260906002401 89 108 0.0 1.7 0.00 0.00 0.00 56 1011.6
20260906002201 89 107 0.0 1.7 0.00 0.00 0.00 56 1011.6
20260906001800 89 101 0.0 1.7 0.00 0.00 0.00 56 1011.6
20260906001700 89 101 0.0 1.7 0.00 0.00 0.00 55 1011.6
20260906001600 89 100 0.9 0.9 0.00 0.00 0.00 55 1011.7
20260906001502 89 93 0.9 1.7 0.00 0.00 0.00 56 1011.7
20260906001300 89 93 0.9 1.7 0.00 0.00 0.00 55 1011.7
20260906001200 90 90 0.9 1.7 0.00 0.00 0.00 55 1011.7
20260906001000 90 90 0.9 1.7 0.00 0.00 0.00 54 1011.7
20260906000800 90 89 0.9 1.7 0.00 0.00 0.00 55 1011.7
20260906000700 90 85 0.0 1.7 0.00 0.00 0.00 55 1011.7
20260906000500 90 87 0.0 1.7 0.00 0.00 0.00 55 1011.7
20260906000400 90 84 0.0 1.7 0.00 0.00 0.00 54 1011.7
20260906000300 90 86 0.0 1.7 0.00 0.00 0.00 54 1011.7
20260906000159 90 93 0.0 1.7 0.00 0.00 0.00 54 1011.7
20260906000100 90 81 0.0 1.7 0.00 0.00 0.00 55 1011.7
20260906000001 90 86 0.0 1.7 0.00 0.00 0.00 55 1011.7
20260905235900 90 86 0.0 1.7 0.00 0.00 0.00 54 1011.8
20260905235700 90 90 0.0 1.7 0.00 0.00 0.00 54 1011.8
20260905235601 90 94 0.0 1.7 0.00 0.00 0.00 54 1011.7
20260905235400 90 97 0.0 1.7 0.00 0.00 0.00 54 1011.7
20260905235301 90 96 0.0 1.7 0.00 0.00 0.00 53 1011.7
20260905235200 90 95 0.0 1.7 0.00 0.00 0.00 54 1011.7
20260905235101 90 116 0.0 1.7 0.00 0.00 0.00 55 1011.7
20260905235000 90 117 0.0 1.7 0.00 0.00 0.00 54 1011.7
20260905234859 90 107 0.0 1.7 0.00 0.00 0.00 54 1011.7
20260905234800 90 109 0.9 1.7 0.00 0.00 0.00 54 1011.7
20260905234600 90 91 0.9 2.6 0.00 0.00 0.00 55 1011.7
20260905234500 90 82 0.9 2.6 0.00 0.00 0.00 55 1011.8
20260905234400 90 81 0.9 2.6 0.00 0.00 0.00 55 1011.8
20260905234301 90 66 0.9 3.5 0.00 0.00 0.00 55 1011.7
20260905234200 90 55 0.9 3.5 0.00 0.00 0.00 55 1011.8
20260905234100 90 50 0.9 3.5 0.00 0.00 0.00 55 1011.8
20260905234001 90 45 0.9 3.5 0.00 0.00 0.00 55 1011.8
20260905233900 90 45 0.9 3.5 0.00 0.00 0.00 55 1011.8
20260905233800 90 39 0.9 3.5 0.00 0.00 0.00 55 1011.8
20260905233659 90 34 0.9 3.5 0.00 0.00 0.00 55 1011.8
20260905233559 90 33 0.9 3.5 0.00 0.00 0.00 54 1011.7
20260905233500 90 38 0.9 3.5 0.00 0.00 0.00 54 1011.7
20260905233401 90 40 0.9 3.5 0.00 0.00 0.00 54 1011.7
20260905233300 90 45 0.9 2.6 0.00 0.00 0.00 54 1011.7
20260905233159 90 52 0.9 2.6 0.00 0.00 0.00 54 1011.8
20260905233000 91 61 0.9 2.6 0.00 0.00 0.00 53 1011.7
20260905232900 91 51 0.9 3.5 0.00 0.00 0.00 53 1011.7
20260905232800 91 43 0.9 3.5 0.00 0.00 0.00 54 1011.7
20260905232700 91 39 1.7 3.5 0.00 0.00 0.00 54 1011.7
20260905232600 91 37 1.7 3.5 0.00 0.00 0.00 53 1011.7
20260905232400 91 29 1.7 3.5 0.00 0.00 0.00 54 1011.8
20260905232300 91 30 1.7 3.5 0.00 0.00 0.00 54 1011.8
20260905232200 91 29 1.7 3.5 0.00 0.00 0.00 53 1011.8
20260905231900 91 28 1.7 5.2 0.00 0.00 0.00 54 1011.9
20260905231759 91 27 1.7 5.2 0.00 0.00 0.00 54 1011.9
20260905231659 91 26 1.7 5.2 0.00 0.00 0.00 54 1011.9
20260905231500 92 24 1.7 5.2 0.00 0.00 0.00 53 1012.0
20260905231400 92 24 1.7 5.2 0.00 0.00 0.00 54 1011.9
20260905231259 92 21 1.7 5.2 0.00 0.00 0.00 54 1011.9
20260905231159 92 20 1.7 5.2 0.00 0.00 0.00 54 1012.0
20260905231100 92 18 1.7 5.2 0.00 0.00 0.00 53 1012.0
20260905231000 92 12 1.7 5.2 0.00 0.00 0.00 53 1012.0
20260905230900 92 9 1.7 5.2 0.00 0.00 0.00 53 1011.9
20260905230800 93 10 1.7 5.2 0.00 0.00 0.00 53 1012.0
20260905230600 93 4 0.9 4.3 0.00 0.00 0.00 53 1011.9
20260905230500 93 6 0.9 5.2 0.00 0.00 0.00 53 1011.8
20260905230400 93 13 0.9 5.2 0.00 0.00 0.00 53 1011.8
20260905230159 93 12 0.9 6.1 0.00 0.00 0.00 52 1011.9
20260905230100 93 8 1.7 6.1 0.00 0.00 0.00 53 1011.8
20260905230000 93 11 1.7 6.1 0.00 0.00 0.00 52 1011.9
20260905225900 93 14 1.7 6.1 0.00 0.00 0.00 52 1011.9
20260905225700 93 15 2.6 6.1 0.00 0.00 0.00 52 1012.0
20260905225559 94 15 2.6 6.1 0.00 0.00 0.00 52 1012.1
20260905225459 94 15 2.6 6.1 0.00 0.00 0.00 52 1012.0
20260905225359 94 10 3.5 6.1 0.00 0.00 0.00 51 1012.1
20260905225300 94 14 3.5 7.8 0.00 0.00 0.00 51 1012.1
20260905225200 94 13 3.5 7.8 0.00 0.00 0.00 51 1012.1
20260905225059 94 13 2.6 7.8 0.00 0.00 0.00 50 1012.1
20260905224959 94 11 2.6 7.8 0.00 0.00 0.00 50 1012.0
20260905224859 95 7 2.6 7.8 0.00 0.00 0.00 49 1012.0
20260905224800 95 5 2.6 7.8 0.00 0.00 0.00 48 1011.9
20260905224700 96 359 2.6 7.8 0.00 0.00 0.00 48 1012.0
20260905224600 96 358 2.6 7.8 0.00 0.00 0.00 47 1012.0
20260905224459 96 352 1.7 7.8 0.00 0.00 0.00 47 1012.0
20260905224359 96 350 1.7 7.8 0.00 0.00 0.00 47 1011.8
20260905224259 96 336 1.7 3.5 0.00 0.00 0.00 48 1011.8
20260905224100 96 329 1.7 3.5 0.00 0.00 0.00 47 1011.7
20260905224000 96 328 1.7 3.5 0.00 0.00 0.00 47 1011.7
20260905223900 96 328 1.7 3.5 0.00 0.00 0.00 47 1011.8
20260905223759 96 328 1.7 3.5 0.00 0.00 0.00 47 1011.9
20260905223459 97 324 1.7 5.2 0.00 0.00 0.00 46 1011.8
20260905223359 97 323 1.7 5.2 0.00 0.00 0.00 47 1011.8
20260905223300 97 323 1.7 5.2 0.00 0.00 0.00 46 1011.8
20260905223200 97 324 1.7 5.2 0.00 0.00 0.00 46 1011.8
20260905223100 97 322 1.7 5.2 0.00 0.00 0.00 47 1011.8
20260905223000 97 323 1.7 5.2 0.00 0.00 0.00 47 1011.7
20260905222300 97 323 2.6 4.3 0.00 0.00 0.00 46 1011.7
20260905222159 97 324 2.6 4.3 0.00 0.00 0.00 46 1011.8
20260905222100 98 324 2.6 4.3 0.00 0.00 0.00 46 1011.8
20260905222000 98 325 2.6 4.3 0.00 0.00 0.00 45 1011.8
20260905221859 98 327 2.6 4.3 0.00 0.00 0.00 46 1011.9
20260905221759 98 328 2.6 4.3 0.00 0.00 0.00 45 1011.9
20260905221659 98 327 2.6 4.3 0.00 0.00 0.00 44 1011.9
20260905221559 98 329 2.6 4.3 0.00 0.00 0.00 44 1011.9
20260905221459 98 329 2.6 4.3 0.00 0.00 0.00 44 1011.9
20260905221359 98 331 2.6 4.3 0.00 0.00 0.00 44 1011.9
20260905221300 98 331 1.7 4.3 0.00 0.00 0.00 44 1011.9
20260905221159 98 330 1.7 4.3 0.00 0.00 0.00 44 1011.9
20260905221100 98 330 1.7 4.3 0.00 0.00 0.00 44 1011.9
20260905220859 98 325 1.7 4.3 0.00 0.00 0.00 46 1011.9
20260905220800 98 324 1.7 4.3 0.00 0.00 0.00 45 1011.9
20260905220659 98 325 1.7 4.3 0.00 0.00 0.00 43 1011.8
20260905220559 98 323 1.7 4.3 0.00 0.00 0.00 43 1011.8
20260905220459 98 322 1.7 4.3 0.00 0.00 0.00 44 1011.8
20260905220200 98 324 1.7 3.5 0.00 0.00 0.00 44 1011.8
20260905220059 98 323 1.7 3.5 0.00 0.00 0.00 44 1011.8
20260905215959 98 323 1.7 3.5 0.00 0.00 0.00 44 1011.7
20260905215900 98 323 1.7 3.5 0.00 0.00 0.00 45 1011.7
20260905215759 98 322 1.7 3.5 0.00 0.00 0.00 45 1011.7
20260905215659 98 325 1.7 3.5 0.00 0.00 0.00 46 1011.7
20260905215559 98 326 1.7 3.5 0.00 0.00 0.00 45 1011.7
20260905215459 98 327 1.7 3.5 0.00 0.00 0.00 44 1011.8
20260905215400 98 328 1.7 3.5 0.00 0.00 0.00 44 1011.7
20260905215259 98 328 1.7 3.5 0.00 0.00 0.00 45 1011.7
20260905215159 98 328 1.7 3.5 0.00 0.00 0.00 45 1011.7
20260905215059 98 329 1.7 3.5 0.00 0.00 0.00 45 1011.7
20260905215008 98 329 1.7 3.5 0.00 0.00 0.00 45 1011.7
20260905214759 98 329 1.7 3.5 0.00 0.00 0.00 45 1011.7
20260905214659 98 328 1.7 3.5 0.00 0.00 0.00 45 1011.7
20260905214559 98 324 1.7 4.3 0.00 0.00 0.00 45 1011.7
20260905214359 98 320 1.7 4.3 0.00 0.00 0.00 45 1011.6
20260905214259 98 319 1.7 4.3 0.00 0.00 0.00 45 1011.6
20260905214159 98 320 1.7 4.3 0.00 0.00 0.00 46 1011.6
20260905214059 98 320 1.7 4.3 0.00 0.00 0.00 46 1011.6
20260905213959 98 321 0.9 4.3 0.00 0.00 0.00 45 1011.6
20260905213758 98 321 1.7 4.3 0.00 0.00 0.00 45 1011.7
20260905213658 98 321 1.7 4.3 0.00 0.00 0.00 45 1011.6
20260905213559 98 325 1.7 4.3 0.00 0.00 0.00 45 1011.7
20260905213459 98 325 1.7 5.2 0.00 0.00 0.00 45 1011.6
20260905213359 98 325 1.7 5.2 0.00 0.00 0.00 46 1011.6
20260905213259 98 324 1.7 5.2 0.00 0.00 0.00 45 1011.7
20260905213158 98 322 1.7 5.2 0.00 0.00 0.00 45 1011.7
20260905213059 98 321 1.7 5.2 0.00 0.00 0.00 46 1011.6
20260905212859 98 323 1.7 5.2 0.00 0.00 0.00 46 1011.7
20260905212759 97 322 1.7 5.2 0.00 0.00 0.00 46 1011.7
20260905212659 97 322 1.7 5.2 0.00 0.00 0.00 46 1011.7
20260905212558 98 320 1.7 5.2 0.00 0.00 0.00 47 1011.8
20260905212500 98 320 1.7 5.2 0.00 0.00 0.00 46 1011.8
20260905212359 97 322 1.7 4.3 0.00 0.00 0.00 47 1011.8
20260905212259 97 322 1.7 4.3 0.00 0.00 0.00 46 1011.8
20260905212200 97 323 1.7 4.3 0.00 0.00 0.00 46 1011.8
20260905212059 97 325 1.7 4.3 0.00 0.00 0.00 46 1011.8
20260905211959 97 325 1.7 4.3 0.00 0.00 0.00 46 1011.8
20260905211900 97 326 1.7 4.3 0.00 0.00 0.00 46 1011.8
20260905211758 97 324 1.7 4.3 0.00 0.00 0.00 47 1011.8
20260905211658 97 322 1.7 4.3 0.00 0.00 0.00 47 1011.9
20260905211559 97 322 1.7 3.5 0.00 0.00 0.00 46 1011.9
20260905211458 97 321 1.7 4.3 0.00 0.00 0.00 46 1011.9
20260905211359 97 320 1.7 4.3 0.00 0.00 0.00 46 1011.9
20260905211259 97 319 1.7 4.3 0.00 0.00 0.00 46 1011.9
20260905210959 98 312 0.9 4.3 0.00 0.00 0.00 45 1011.9
20260905210858 98 309 0.9 4.3 0.00 0.00 0.00 44 1011.9
20260905210759 98 309 0.9 4.3 0.00 0.00 0.00 44 1011.9
20260905210659 98 309 0.9 4.3 0.00 0.00 0.00 44 1012.0
20260905210600 98 307 0.9 4.3 0.00 0.00 0.00 45 1012.0
20260905210459 98 307 0.9 1.7 0.00 0.00 0.00 45 1012.0
20260905210358 98 307 0.9 1.7 0.00 0.00 0.00 44 1012.0
20260905210259 98 309 0.9 2.6 0.00 0.00 0.00 43 1012.0
20260905210059 98 305 0.9 3.5 0.00 0.00 0.00 43 1012.0
20260905205959 98 309 0.9 4.3 0.00 0.00 0.00 43 1012.0
20260905205859 98 316 1.7 4.3 0.00 0.00 0.00 43 1012.0
20260905205759 98 320 1.7 4.3 0.00 0.00 0.00 43 1012.1
20260905205559 98 325 1.7 4.3 0.00 0.00 0.00 44 1012.1
20260905205459 99 324 1.7 4.3 0.00 0.00 0.00 44 1012.1
20260905205259 99 325 1.7 4.3 0.00 0.00 0.00 44 1012.1
20260905205159 99 328 1.7 4.3 0.00 0.00 0.00 43 1012.1
20260905205058 99 328 1.7 4.3 0.00 0.00 0.00 43 1012.1
20260905204959 99 328 1.7 4.3 0.00 0.00 0.00 43 1012.0
20260905204859 99 320 1.7 4.3 0.00 0.00 0.00 43 1012.1
20260905204759 99 319 1.7 4.3 0.00 0.00 0.00 43 1012.1
20260905204659 99 316 1.7 4.3 0.00 0.00 0.00 43 1012.1
20260905204458 99 316 1.7 4.3 0.00 0.00 0.00 42 1012.1
20260905204359 100 312 1.7 4.3 0.00 0.00 0.00 42 1012.1
20260905203959 100 305 1.7 4.3 0.00 0.00 0.00 43 1012.1
20260905203858 100 306 1.7 4.3 0.00 0.00 0.00 44 1012.1
20260905203758 100 305 1.7 4.3 0.00 0.00 0.00 42 1012.2
20260905203659 100 306 1.7 4.3 0.00 0.00 0.00 42 1012.2
20260905203559 100 306 1.7 4.3 0.00 0.00 0.00 43 1012.1
20260905203459 99 307 1.7 4.3 0.00 0.00 0.00 43 1012.2
20260905203258 99 316 1.7 3.5 0.00 0.00 0.00 42 1012.2
20260905203059 99 312 1.7 3.5 0.00 0.00 0.00 42 1012.2
20260905202858 99 312 1.7 3.5 0.00 0.00 0.00 43 1012.2
20260905202758 99 309 1.7 3.5 0.00 0.00 0.00 43 1012.2
20260905202658 99 304 1.7 3.5 0.00 0.00 0.00 43 1012.2
20260905202559 99 303 1.7 3.5 0.00 0.00 0.00 42 1012.2
20260905202459 99 303 1.7 3.5 0.00 0.00 0.00 42 1012.2
20260905202259 99 304 1.7 3.5 0.00 0.00 0.00 43 1012.2
20260905202158 99 305 1.7 3.5 0.00 0.00 0.00 43 1012.3
20260905202058 99 313 1.7 4.3 0.00 0.00 0.00 43 1012.3
20260905201959 100 314 1.7 4.3 0.00 0.00 0.00 44 1012.3
20260905201859 100 317 1.7 4.3 0.00 0.00 0.00 44 1012.4
20260905201759 100 319 2.6 4.3 0.00 0.00 0.00 43 1012.3
20260905201659 99 321 2.6 4.3 0.00 0.00 0.00 43 1012.3
20260905201558 99 320 2.6 4.3 0.00 0.00 0.00 43 1012.3
20260905201458 100 321 2.6 4.3 0.00 0.00 0.00 42 1012.3
20260905201359 100 323 2.6 4.3 0.00 0.00 0.00 42 1012.4
20260905201300 100 325 2.6 4.3 0.00 0.00 0.00 42 1012.3
20260905201159 100 324 2.6 4.3 0.00 0.00 0.00 42 1012.3
20260905201058 100 326 2.6 5.2 0.00 0.00 0.00 42 1012.3
20260905200958 100 328 2.6 5.2 0.00 0.00 0.00 42 1012.3
20260905200858 100 331 2.6 6.1 0.00 0.00 0.00 42 1012.3
20260905200759 100 335 2.6 6.1 0.00 0.00 0.00 42 1012.3
20260905200658 100 339 2.6 6.1 0.00 0.00 0.00 42 1012.3
20260905200559 100 339 2.6 6.1 0.00 0.00 0.00 42 1012.3
20260905200358 100 341 2.6 8.7 0.00 0.00 0.00 42 1012.3
20260905195759 100 333 1.7 8.7 0.00 0.00 0.00 41 1012.4
20260905195559 99 324 1.7 8.7 0.00 0.00 0.00 42 1012.5
20260905195458 100 316 1.7 5.2 0.00 0.00 0.00 43 1012.5
20260905195358 100 317 2.6 5.2 0.00 0.00 0.00 43 1012.6
20260905195259 99 318 2.6 5.2 0.00 0.00 0.00 43 1012.6
20260905195158 99 319 2.6 5.2 0.00 0.00 0.00 42 1012.6
20260905195059 99 322 2.6 5.2 0.00 0.00 0.00 41 1012.6
20260905194959 99 321 2.6 5.2 0.00 0.00 0.00 42 1012.6
20260905194858 99 321 2.6 5.2 0.00 0.00 0.00 41 1012.6
20260905194759 99 321 2.6 6.1 0.00 0.00 0.00 41 1012.7
20260905194659 100 323 2.6 6.1 0.00 0.00 0.00 43 1012.7
20260905194558 100 323 2.6 6.1 0.00 0.00 0.00 41 1012.7
20260905194459 100 323 2.6 6.1 0.00 0.00 0.00 41 1012.7
20260905194358 100 324 2.6 6.1 0.00 0.00 0.00 42 1012.7
20260905194159 100 323 2.6 6.1 0.00 0.00 0.00 42 1012.7
20260905194059 100 324 2.6 6.1 0.00 0.00 0.00 42 1012.7
20260905193958 100 325 2.6 6.1 0.00 0.00 0.00 43 1012.7
20260905193858 100 324 2.6 6.1 0.00 0.00 0.00 41 1012.7
20260905193758 100 325 1.7 6.1 0.00 0.00 0.00 41 1012.7
20260905193659 100 326 1.7 5.2 0.00 0.00 0.00 43 1012.7
20260905193558 100 327 1.7 5.2 0.00 0.00 0.00 41 1012.7
20260905193358 100 325 1.7 4.3 0.00 0.00 0.00 44 1012.7
20260905193258 99 332 2.6 10.4 0.00 0.00 0.00 41 1012.7
20260905193159 99 332 2.6 10.4 0.00 0.00 0.00 41 1012.8
20260905192959 99 327 1.7 10.4 0.00 0.00 0.00 41 1012.8
20260905192858 99 329 1.7 10.4 0.00 0.00 0.00 41 1012.9
20260905192758 99 328 1.7 10.4 0.00 0.00 0.00 41 1012.9
20260905192558 100 324 1.7 10.4 0.00 0.00 0.00 41 1012.9
20260905192458 100 323 1.7 10.4 0.00 0.00 0.00 42 1012.9
20260905192157 100 316 1.7 6.1 0.00 0.00 0.00 41 1012.9
20260905192058 100 321 1.7 6.1 0.00 0.00 0.00 41 1012.9
20260905191958 100 329 1.7 6.1 0.00 0.00 0.00 41 1012.9
20260905191858 100 326 2.6 6.1 0.00 0.00 0.00 41 1013.0
20260905191758 100 327 2.6 6.1 0.00 0.00 0.00 41 1013.0
20260905191658 100 328 2.6 6.1 0.00 0.00 0.00 40 1013.0
20260905191558 100 329 2.6 6.1 0.00 0.00 0.00 40 1013.0
20260905191358 100 333 1.7 6.1 0.00 0.00 0.00 44 1013.1
20260905191258 100 336 1.7 4.3 0.00 0.00 0.00 44 1013.0
20260905191158 100 335 1.7 4.3 0.00 0.00 0.00 45 1013.1
20260905191058 100 328 1.7 3.5 0.00 0.00 0.00 44 1013.0
20260905190958 100 320 1.7 3.5 0.00 0.00 0.00 44 1013.0
20260905190858 100 319 1.7 3.5 0.00 0.00 0.00 45 1013.0
20260905190758 100 314 1.7 3.5 0.00 0.00 0.00 42 1013.1
20260905190658 101 318 1.7 3.5 0.00 0.00 0.00 42 1013.0
20260905190558 101 316 1.7 3.5 0.00 0.00 0.00 42 1013.1
20260905190458 101 317 1.7 3.5 0.00 0.00 0.00 45 1013.1
20260905190358 100 322 1.7 4.3 0.00 0.00 0.00 43 1013.1
20260905190257 101 324 1.7 4.3 0.00 0.00 0.00 43 1013.2
20260905190158 100 322 1.7 4.3 0.00 0.00 0.00 43 1013.2
20260905190059 100 324 1.7 4.3 0.00 0.00 0.00 43 1013.1
20260905185959 100 330 1.7 4.3 0.00 0.00 0.00 44 1013.2
20260905185858 100 331 1.7 4.3 0.00 0.00 0.00 42 1013.2
20260905185757 100 334 1.7 4.3 0.00 0.00 0.00 43 1013.2
20260905185657 100 333 1.7 4.3 0.00 0.00 0.00 45 1013.2
20260905185458 99 334 1.7 4.3 0.00 0.00 0.00 44 1013.2
20260905185358 99 330 1.7 4.3 0.00 0.00 0.00 45 1013.2
20260905185258 99 329 1.7 4.3 0.00 0.00 0.00 45 1013.2
20260905185157 99 329 1.7 4.3 0.00 0.00 0.00 44 1013.2
20260905185057 99 329 1.7 4.3 0.00 0.00 0.00 43 1013.2
20260905184958 99 325 1.7 4.3 0.00 0.00 0.00 45 1013.2
20260905184858 99 325 2.6 6.1 0.00 0.00 0.00 45 1013.2
20260905184759 99 326 2.6 6.1 0.00 0.00 0.00 45 1013.3
20260905184658 100 327 2.6 6.1 0.00 0.00 0.00 44 1013.3
20260905184458 100 331 2.6 6.1 0.00 0.00 0.00 44 1013.3
20260905184358 100 332 2.6 6.1 0.00 0.00 0.00 45 1013.3
20260905184258 100 333 2.6 6.1 0.00 0.00 0.00 45 1013.3
20260905184200 100 337 2.6 6.1 0.00 0.00 0.00 45 1013.3
20260905184058 100 340 1.7 6.1 0.00 0.00 0.00 45 1013.3
20260905183958 100 344 1.7 6.1 0.00 0.00 0.00 46 1013.4
20260905183858 100 344 1.7 6.1 0.00 0.00 0.00 46 1013.4
20260905183758 100 347 1.7 4.3 0.00 0.00 0.00 46 1013.4
20260905183657 100 351 1.7 4.3 0.00 0.00 0.00 46 1013.4
20260905183558 100 345 1.7 4.3 0.00 0.00 0.00 46 1013.3
20260905183458 100 341 1.7 4.3 0.00 0.00 0.00 46 1013.4
20260905183358 100 339 1.7 4.3 0.00 0.00 0.00 46 1013.5
20260905183257 100 338 1.7 4.3 0.00 0.00 0.00 48 1013.5
20260905183058 99 326 1.7 4.3 0.00 0.00 0.00 47 1013.5
20260905182958 99 320 1.7 3.5 0.00 0.00 0.00 47 1013.5
20260905182859 98 325 1.7 3.5 0.00 0.00 0.00 48 1013.5
20260905182657 98 323 1.7 3.5 0.00 0.00 0.00 47 1013.6
20260905182458 98 322 1.7 3.5 0.00 0.00 0.00 47 1013.6
20260905182359 98 326 1.7 3.5 0.00 0.00 0.00 47 1013.6
20260905182258 98 323 1.7 3.5 0.00 0.00 0.00 46 1013.6
20260905182157 99 327 1.7 3.5 0.00 0.00 0.00 45 1013.7
20260905182057 99 329 1.7 2.6 0.00 0.00 0.00 49 1013.6
20260905181958 99 331 0.9 2.6 0.00 0.00 0.00 47 1013.7
20260905181858 99 327 1.7 2.6 0.00 0.00 0.00 46 1013.7
20260905181658 99 326 1.7 3.5 0.00 0.00 0.00 48 1013.8
20260905181558 98 336 1.7 4.3 0.00 0.00 0.00 48 1013.7
20260905181358 98 349 1.7 5.2 0.00 0.00 0.00 47 1013.7
20260905181157 98 347 1.7 5.2 0.00 0.00 0.00 48 1013.7
20260905181057 97 346 1.7 5.2 0.00 0.00 0.00 48 1013.7
20260905180957 97 344 1.7 5.2 0.00 0.00 0.00 48 1013.7
20260905180758 97 345 0.9 5.2 0.00 0.00 0.00 50 1013.7
20260905180658 97 351 0.9 5.2 0.00 0.00 0.00 47 1013.7
20260905180458 96 319 0.9 3.5 0.00 0.00 0.00 49 1013.7
20260905180357 96 311 0.9 3.5 0.00 0.00 0.00 49 1013.7
20260905180158 97 308 0.9 3.5 0.00 0.00 0.00 50 1013.7
20260905175958 96 314 0.9 2.6 0.00 0.00 0.00 51 1013.7
20260905175858 96 321 0.9 2.6 0.00 0.00 0.00 50 1013.7
20260905175758 96 322 0.9 2.6 0.00 0.00 0.00 50 1013.7
20260905175557 96 321 0.9 2.6 0.00 0.00 0.00 49 1013.7
20260905175457 97 317 1.7 4.3 0.00 0.00 0.00 49 1013.7
20260905175358 97 316 1.7 5.2 0.00 0.00 0.00 47 1013.7
20260905175057 97 324 0.9 5.2 0.00 0.00 0.00 50 1013.7
20260905174758 97 342 1.7 5.2 0.00 0.00 0.00 50 1013.7
20260905174658 97 349 1.7 5.2 0.00 0.00 0.00 51 1013.7
20260905174357 97 1 1.7 4.3 0.00 0.00 0.00 53 1013.7
20260905174058 98 355 1.7 4.3 0.00 0.00 0.00 49 1013.8
20260905173959 98 353 1.7 4.3 0.00 0.00 0.00 49 1013.7
20260905173857 97 350 1.7 4.3 0.00 0.00 0.00 49 1013.7
20260905173757 97 340 0.9 4.3 0.00 0.00 0.00 50 1013.7
20260905173657 97 328 0.9 3.5 0.00 0.00 0.00 50 1013.7
20260905173558 97 318 0.9 3.5 0.00 0.00 0.00 49 1013.7
20260905173457 96 316 0.9 3.5 0.00 0.00 0.00 49 1013.7
20260905173357 96 302 0.9 2.6 0.00 0.00 0.00 51 1013.7
20260905173257 96 287 0.9 2.6 0.00 0.00 0.00 52 1013.7
20260905173157 96 270 0.9 2.6 0.00 0.00 0.00 52 1013.7
20260905173058 96 252 0.9 2.6 0.00 0.00 0.00 52 1013.7
20260905172857 96 247 0.9 3.5 0.00 0.00 0.00 53 1013.8
20260905172757 96 247 0.9 3.5 0.00 0.00 0.00 53 1013.8
20260905172657 95 250 0.9 3.5 0.00 0.00 0.00 53 1013.7
20260905172557 95 245 0.9 3.5 0.00 0.00 0.00 52 1013.8
20260905172457 96 251 0.9 3.5 0.00 0.00 0.00 51 1013.7
20260905172358 96 258 0.9 3.5 0.00 0.00 0.00 52 1013.8
20260905172257 96 273 0.9 3.5 0.00 0.00 0.00 52 1013.8
20260905172157 96 282 0.9 3.5 0.00 0.00 0.00 52 1013.8
20260905172057 96 296 0.9 3.5 0.00 0.00 0.00 54 1013.8
20260905171958 96 301 0.9 3.5 0.00 0.00 0.00 52 1013.8
20260905171858 96 310 0.9 2.6 0.00 0.00 0.00 53 1013.8
20260905171757 96 311 0.9 2.6 0.00 0.00 0.00 52 1013.8
20260905171657 96 312 0.9 2.6 0.00 0.00 0.00 52 1013.8
20260905171558 96 320 0.9 2.6 0.00 0.00 0.00 52 1013.8
20260905171458 96 323 0.9 2.6 0.00 0.00 0.00 52 1013.8
20260905171357 96 317 0.9 2.6 0.00 0.00 0.00 51 1013.7
20260905171257 96 303 0.9 1.7 0.00 0.00 0.00 51 1013.8
20260905171158 96 288 0.9 1.7 0.00 0.00 0.00 53 1013.8
20260905171057 96 260 0.9 1.7 0.00 0.00 0.00 53 1013.8
20260905170958 97 240 0.9 1.7 0.00 0.00 0.00 51 1013.9
20260905170657 96 211 0.9 1.7 0.00 0.00 0.00 55 1013.9
20260905170605 95 205 0.9 1.7 0.00 0.00 0.00 55 1013.9
20260905170357 95 203 0.9 1.7 0.00 0.00 0.00 52 1013.9
20260905170158 95 234 0.9 1.7 0.00 0.00 0.00 52 1014.0
20260905170058 95 248 0.9 1.7 0.00 0.00 0.00 54 1014.0
20260905165958 95 252 0.9 1.7 0.00 0.00 0.00 55 1014.1
20260905165857 95 255 0.9 1.7 0.00 0.00 0.00 56 1014.2
20260905165557 94 263 0.9 2.6 0.00 0.00 0.00 54 1014.1
20260905165458 94 262 0.9 2.6 0.00 0.00 0.00 56 1014.2
20260905165357 94 260 0.9 2.6 0.00 0.00 0.00 54 1014.2
20260905165257 94 256 0.9 2.6 0.00 0.00 0.00 54 1014.2
20260905165158 94 257 0.9 2.6 0.00 0.00 0.00 54 1014.3
20260905165058 94 262 0.9 2.6 0.00 0.00 0.00 54 1014.3
20260905164957 94 262 0.9 2.6 0.00 0.00 0.00 55 1014.3
20260905164757 94 291 0.9 2.6 0.00 0.00 0.00 55 1014.3
20260905164557 94 322 0.9 2.6 0.00 0.00 0.00 54 1014.3
20260905164457 94 329 0.9 2.6 0.00 0.00 0.00 57 1014.2
20260905164357 94 340 0.9 2.6 0.00 0.00 0.00 53 1014.2
20260905164157 94 310 0.9 2.6 0.00 0.00 0.00 53 1014.3
20260905164057 94 296 0.9 2.6 0.00 0.00 0.00 53 1014.3
20260905163957 94 289 0.9 2.6 0.00 0.00 0.00 56 1014.3
20260905163757 93 275 0.9 2.6 0.00 0.00 0.00 56 1014.3
20260905163658 93 278 0.9 2.6 0.00 0.00 0.00 54 1014.3
20260905163557 93 280 0.9 2.6 0.00 0.00 0.00 54 1014.3
20260905163457 93 279 0.9 2.6 0.00 0.00 0.00 54 1014.3
20260905163357 94 287 0.9 2.6 0.00 0.00 0.00 54 1014.3
20260905163257 94 281 0.9 2.6 0.00 0.00 0.00 55 1014.3
20260905163057 93 305 0.9 2.6 0.00 0.00 0.00 55 1014.3
20260905163000 93 317 0.9 2.6 0.00 0.00 0.00 57 1014.3
20260905162856 92 316 0.9 3.5 0.00 0.00 0.00 57 1014.3
20260905162657 92 318 0.9 3.5 0.00 0.00 0.00 57 1014.3
20260905162558 92 328 0.9 3.5 0.00 0.00 0.00 56 1014.3
20260905162457 92 339 0.9 3.5 0.00 0.00 0.00 56 1014.3
20260905162357 92 341 1.7 3.5 0.00 0.00 0.00 55 1014.3
20260905162157 92 330 1.7 3.5 0.00 0.00 0.00 56 1014.4
20260905162057 92 329 1.7 3.5 0.00 0.00 0.00 57 1014.4
20260905161858 92 336 1.7 2.6 0.00 0.00 0.00 57 1014.5
20260905161657 92 331 1.7 2.6 0.00 0.00 0.00 56 1014.5
20260905161556 92 319 0.9 2.6 0.00 0.00 0.00 58 1014.5
20260905161358 92 305 0.9 2.6 0.00 0.00 0.00 57 1014.6
20260905161257 92 308 0.9 2.6 0.00 0.00 0.00 57 1014.6
20260905161157 92 312 0.9 2.6 0.00 0.00 0.00 57 1014.6
20260905160957 92 314 0.9 2.6 0.00 0.00 0.00 56 1014.6
20260905160856 92 314 0.9 2.6 0.00 0.00 0.00 58 1014.6
20260905160757 92 314 0.9 2.6 0.00 0.00 0.00 56 1014.7
20260905160557 92 318 0.9 2.6 0.00 0.00 0.00 57 1014.6
20260905160457 92 317 0.9 2.6 0.00 0.00 0.00 57 1014.6
20260905160357 92 314 0.9 2.6 0.00 0.00 0.00 57 1014.5
20260905160256 92 317 0.9 2.6 0.00 0.00 0.00 59 1014.5
20260905160156 91 317 0.9 1.7 0.00 0.00 0.00 56 1014.5
20260905155957 91 309 0.9 1.7 0.00 0.00 0.00 57 1014.5
20260905155857 91 306 0.9 1.7 0.00 0.00 0.00 59 1014.5
20260905155756 91 308 0.9 1.7 0.00 0.00 0.00 57 1014.5
20260905155656 91 309 0.9 1.7 0.00 0.00 0.00 57 1014.5
20260905155556 91 309 0.9 1.7 0.00 0.00 0.00 57 1014.5
20260905155456 91 313 0.9 1.7 0.00 0.00 0.00 56 1014.6
20260905155358 91 314 0.9 1.7 0.00 0.00 0.00 57 1014.6
20260905155158 91 319 0.9 2.6 0.00 0.00 0.00 57 1014.6
20260905155057 91 316 0.9 2.6 0.00 0.00 0.00 56 1014.6
20260905154956 91 317 0.9 2.6 0.00 0.00 0.00 57 1014.5
20260905154856 91 317 0.9 2.6 0.00 0.00 0.00 57 1014.6
20260905154757 91 315 0.9 2.6 0.00 0.00 0.00 56 1014.6
20260905154657 91 315 0.9 2.6 0.00 0.00 0.00 58 1014.6
20260905154557 91 315 0.9 2.6 0.00 0.00 0.00 58 1014.6
20260905154357 91 310 0.9 2.6 0.00 0.00 0.00 58 1014.7
20260905154256 90 309 0.9 2.6 0.00 0.00 0.00 57 1014.7
20260905154157 90 303 0.9 2.6 0.00 0.00 0.00 57 1014.7
20260905154058 91 305 0.9 2.6 0.00 0.00 0.00 56 1014.8
20260905153957 91 306 0.9 2.6 0.00 0.00 0.00 57 1014.7
20260905153856 90 307 0.9 2.6 0.00 0.00 0.00 59 1014.7
20260905153756 90 308 0.9 2.6 0.00 0.00 0.00 59 1014.8
20260905153556 90 309 0.9 2.6 0.00 0.00 0.00 58 1014.7
20260905153357 90 312 0.9 2.6 0.00 0.00 0.00 58 1014.8
20260905153257 90 312 0.9 2.6 0.00 0.00 0.00 58 1014.8
20260905153158 90 313 0.9 2.6 0.00 0.00 0.00 57 1014.7
20260905153057 90 316 0.9 2.6 0.00 0.00 0.00 59 1014.8
20260905152856 90 315 0.9 2.6 0.00 0.00 0.00 59 1014.7
20260905152756 90 313 0.9 3.5 0.00 0.00 0.00 58 1014.8
20260905152657 90 312 0.9 3.5 0.00 0.00 0.00 58 1014.8
20260905152557 90 309 0.9 3.5 0.00 0.00 0.00 58 1014.7
20260905152457 90 309 0.9 3.5 0.00 0.00 0.00 58 1014.7
20260905152256 90 309 0.9 3.5 0.00 0.00 0.00 58 1014.7
20260905152156 90 309 0.9 3.5 0.00 0.00 0.00 57 1014.8
20260905152056 90 299 1.7 3.5 0.00 0.00 0.00 58 1014.7
20260905151957 90 303 1.7 3.5 0.00 0.00 0.00 59 1014.8
20260905151856 90 304 0.9 3.5 0.00 0.00 0.00 59 1014.7
20260905151757 90 305 0.9 3.5 0.00 0.00 0.00 60 1014.7
20260905151657 90 308 0.9 3.5 0.00 0.00 0.00 60 1014.7
20260905151557 89 311 1.7 3.5 0.00 0.00 0.00 61 1014.7
20260905151456 89 311 1.7 3.5 0.00 0.00 0.00 60 1014.8
20260905151356 89 313 1.7 3.5 0.00 0.00 0.00 59 1014.8
20260905151156 90 313 1.7 3.5 0.00 0.00 0.00 59 1014.7
20260905151056 89 320 1.7 3.5 0.00 0.00 0.00 60 1014.7
20260905150957 89 317 0.9 3.5 0.00 0.00 0.00 61 1014.7
20260905150857 89 313 0.9 2.6 0.00 0.00 0.00 61 1014.8
20260905150757 89 314 0.9 2.6 0.00 0.00 0.00 60 1014.7
20260905150656 89 312 0.9 2.6 0.00 0.00 0.00 62 1014.7
20260905150556 89 312 0.9 2.6 0.00 0.00 0.00 62 1014.8
20260905150456 89 315 0.9 3.5 0.00 0.00 0.00 61 1014.8
20260905150356 89 315 0.9 3.5 0.00 0.00 0.00 61 1014.8
20260905150257 89 317 0.9 3.5 0.00 0.00 0.00 61 1014.8
20260905150157 89 318 1.7 3.5 0.00 0.00 0.00 61 1014.7
20260905145956 88 320 0.9 3.5 0.00 0.00 0.00 63 1014.7
20260905145856 88 323 0.9 3.5 0.00 0.00 0.00 62 1014.7
20260905145757 88 323 0.9 3.5 0.00 0.00 0.00 62 1014.7
20260905145556 88 324 0.9 3.5 0.00 0.00 0.00 62 1014.7
20260905145456 88 323 0.9 3.5 0.00 0.00 0.00 63 1014.7
20260905145356 88 323 0.9 3.5 0.00 0.00 0.00 62 1014.7
20260905145156 88 321 0.9 3.5 0.00 0.00 0.00 66 1014.7
20260905145057 88 319 0.9 2.6 0.00 0.00 0.00 66 1014.7
20260905144958 88 313 0.9 2.6 0.00 0.00 0.00 65 1014.7
20260905144856 88 303 0.9 2.6 0.00 0.00 0.00 66 1014.7
20260905144756 87 299 0.9 2.6 0.00 0.00 0.00 66 1014.6
20260905144656 87 292 0.9 2.6 0.00 0.00 0.00 67 1014.6
20260905144556 87 291 0.9 2.6 0.00 0.00 0.00 66 1014.6
20260905144457 87 287 0.9 2.6 0.00 0.00 0.00 66 1014.6
20260905144356 87 291 0.9 2.6 0.00 0.00 0.00 65 1014.6
20260905144256 87 290 0.9 2.6 0.00 0.00 0.00 65 1014.6
20260905144156 87 289 0.9 2.6 0.00 0.00 0.00 65 1014.6
20260905144056 87 289 0.9 2.6 0.00 0.00 0.00 66 1014.7
20260905143956 87 294 0.9 1.7 0.00 0.00 0.00 66 1014.7
20260905143857 87 303 0.9 1.7 0.00 0.00 0.00 66 1014.7
20260905143756 87 307 0.9 1.7 0.00 0.00 0.00 66 1014.7
20260905143656 87 306 0.9 1.7 0.00 0.00 0.00 66 1014.7
20260905143556 86 305 0.9 1.7 0.00 0.00 0.00 67 1014.7
20260905143456 86 303 0.9 1.7 0.00 0.00 0.00 66 1014.7
20260905143358 86 301 0.0 1.7 0.00 0.00 0.00 67 1014.7
20260905143257 86 300 0.0 1.7 0.00 0.00 0.00 66 1014.6
20260905143156 86 297 0.0 1.7 0.00 0.00 0.00 66 1014.6
20260905143056 86 290 0.0 1.7 0.00 0.00 0.00 66 1014.6
20260905142956 86 288 0.0 2.6 0.00 0.00 0.00 67 1014.6
20260905142855 86 287 0.0 2.6 0.00 0.00 0.00 67 1014.6
20260905142656 86 288 0.9 2.6 0.00 0.00 0.00 66 1014.7
20260905142556 86 288 0.9 2.6 0.00 0.00 0.00 67 1014.7
20260905142456 86 280 0.9 2.6 0.00 0.00 0.00 68 1014.7
20260905142356 86 279 0.9 2.6 0.00 0.00 0.00 68 1014.7
20260905142257 86 278 0.9 2.6 0.00 0.00 0.00 68 1014.7
20260905142156 86 277 0.9 2.6 0.00 0.00 0.00 68 1014.8
20260905142056 86 275 0.9 2.6 0.00 0.00 0.00 69 1014.7
20260905141956 85 271 0.9 1.7 0.00 0.00 0.00 69 1014.7
20260905141756 85 269 0.9 1.7 0.00 0.00 0.00 68 1014.7
20260905141656 85 264 0.9 1.7 0.00 0.00 0.00 69 1014.7
20260905141557 85 263 0.9 1.7 0.00 0.00 0.00 69 1014.7
20260905141256 85 265 0.9 1.7 0.00 0.00 0.00 70 1014.6
20260905141156 85 265 0.0 1.7 0.00 0.00 0.00 70 1014.6
20260905141056 85 266 0.0 1.7 0.00 0.00 0.00 69 1014.6
20260905140957 85 266 0.0 1.7 0.00 0.00 0.00 70 1014.6
20260905140856 85 265 0.0 1.7 0.00 0.00 0.00 70 1014.6
20260905140756 85 265 0.0 1.7 0.00 0.00 0.00 70 1014.6
20260905140656 84 266 0.0 1.7 0.00 0.00 0.00 70 1014.6
20260905140556 84 266 0.0 1.7 0.00 0.00 0.00 71 1014.6
20260905140456 84 269 0.0 1.7 0.00 0.00 0.00 72 1014.6
20260905140356 84 273 0.0 0.9 0.00 0.00 0.00 73 1014.6
20260905140256 84 273 0.0 0.9 0.00 0.00 0.00 72 1014.5
20260905140157 84 273 0.0 1.7 0.00 0.00 0.00 72 1014.6
20260905140056 84 273 0.0 1.7 0.00 0.00 0.00 72 1014.5
20260905135956 84 273 0.0 1.7 0.00 0.00 0.00 72 1014.5
20260905135756 84 273 0.0 1.7 0.00 0.00 0.00 72 1014.5
20260905135655 84 273 0.0 1.7 0.00 0.00 0.00 71 1014.5
20260905135456 84 273 0.0 1.7 0.00 0.00 0.00 72 1014.4
20260905135256 84 273 0.0 1.7 0.00 0.00 0.00 71 1014.4
20260905135057 84 273 0.0 1.7 0.00 0.00 0.00 71 1014.4
20260905134855 84 273 0.0 1.7 0.00 0.00 0.00 71 1014.4
20260905134756 84 273 0.0 1.7 0.00 0.00 0.00 71 1014.5
20260905134657 84 272 0.0 1.7 0.00 0.00 0.00 71 1014.5
20260905134456 84 272 0.0 1.7 0.00 0.00 0.00 70 1014.4
20260905134356 84 272 0.0 1.7 0.00 0.00 0.00 70 1014.4
20260905134256 84 272 0.0 1.7 0.00 0.00 0.00 70 1014.4
20260905134055 84 269 0.0 1.7 0.00 0.00 0.00 69 1014.4
20260905133955 84 267 0.0 1.7 0.00 0.00 0.00 69 1014.4
20260905133856 84 267 0.0 1.7 0.00 0.00 0.00 70 1014.4
20260905133756 84 266 0.0 1.7 0.00 0.00 0.00 70 1014.3
20260905133656 84 266 0.0 1.7 0.00 0.00 0.00 70 1014.3
20260905133556 84 266 0.0 1.7 0.00 0.00 0.00 70 1014.3
20260905133457 84 265 0.0 1.7 0.00 0.00 0.00 70 1014.3
20260905133356 84 267 0.9 1.7 0.00 0.00 0.00 70 1014.3
20260905133256 84 269 0.0 1.7 0.00 0.00 0.00 70 1014.3
20260905133155 84 271 0.0 1.7 0.00 0.00 0.00 70 1014.3
20260905133056 84 272 0.0 1.7 0.00 0.00 0.00 70 1014.3
20260905132956 84 273 0.0 1.7 0.00 0.00 0.00 71 1014.3
20260905132856 84 275 0.0 1.7 0.00 0.00 0.00 70 1014.3
20260905132756 84 276 0.0 1.7 0.00 0.00 0.00 70 1014.3
20260905132656 84 277 0.0 1.7 0.00 0.00 0.00 70 1014.3
20260905132555 83 279 0.0 1.7 0.00 0.00 0.00 70 1014.3
20260905132456 83 282 0.0 1.7 0.00 0.00 0.00 70 1014.3
20260905132356 83 284 0.0 1.7 0.00 0.00 0.00 70 1014.3
20260905132256 83 284 0.0 1.7 0.00 0.00 0.00 70 1014.3
20260905132156 83 284 0.0 1.7 0.00 0.00 0.00 70 1014.3
20260905132055 83 284 0.0 1.7 0.00 0.00 0.00 70 1014.3
20260905131857 83 284 0.0 1.7 0.00 0.00 0.00 70 1014.3
20260905131756 83 284 0.0 1.7 0.00 0.00 0.00 70 1014.3